Change the Weather History Date:

Friday, October 31, 2014

  Actual Average Record
Temperature  
Mean Temperature 48 °F 56 °F  
Max Temperature 59 °F 67 °F 86 °F (1900)
Min Temperature 37 °F 46 °F 22 °F (1917)
Degree Days  
Heating Degree Days 17 9  
Month to date heating degree days 132 170  
Since 1 July heating degree days 141 187  
Cooling Degree Days 0 1  
Month to date cooling degree days 78 53  
Year to date cooling degree days 1798 1824  
Moisture  
Dew Point 35 °F    
Average Humidity 62    
Maximum Humidity 100    
Minimum Humidity 24    
Precipitation  
Precipitation 0.00 in 0.11 in 2.60 in (1996)
Month to date precipitation 3.95 4.26  
Year to date precipitation 39.47 38.43  
Snow  
Snow 0.00 in 0.00 in 0.00 in (2002)
Month to date snowfall 0.0 0.0  
Since 1 July snowfall 0.0 0.0  
Since 1 September snowfall 0.0 0.0  
Snow Depth 0.00 in    
Sea Level Pressure  
Sea Level Pressure 30.18 in    
Wind  
Wind Speed 10 mph (NNW)    
Max Wind Speed 23 mph    
Max Gust Speed 32 mph    
Visibility 10 miles    
Events      
T = Trace of Precipitation, MM = Missing Value Source: NWS Daily Summary

Daily Weather History Graph

Daily Weather History Graph

Search for Another Location

Airport or City:

Trip Planner

Search our weather history database for the weather conditions in past years. The results will help you decide how hot, cold, wet, or windy it might be!

Date:

Astronomy

Oct. 31, 2014 Rise Set
Actual Time 7:23 AM CDT 6:07 PM CDT
Civil Twilight 6:57 AM CDT 6:34 PM CDT
Nautical Twilight 6:27 AM CDT 7:04 PM CDT
Astronomical Twilight 5:57 AM CDT 7:34 PM CDT
Moon 2:09 PM CDT (10/31) 12:26 AM CDT (10/31)
Length of Visible Light 11h 36m
Length of Day
10h 44m
First Quarter, 57% of the Moon is Illuminated
Oct 31
First Quarter
Nov 6
Full
Nov 14
Last Quarter
Nov 22
New
Nov 29
First Quarter

Hourly Weather History & Observations

Time (CDT) Temp. Windchill Dew Point Humidity Pressure Visibility Wind Dir Wind Speed Gust Speed Precip Events Conditions
12:53 AM 48.9 °F - 48.0 °F 97% 29.99 in 10.0 mi Calm Calm - N/A   Clear
1:53 AM 52.0 °F - 48.0 °F 86% 29.99 in 10.0 mi NW 5.8 mph - N/A   Clear
2:53 AM 50.0 °F - 48.0 °F 93% 30.00 in 10.0 mi Calm Calm - N/A   Clear
3:53 AM 48.0 °F - 46.9 °F 96% 30.01 in 10.0 mi NW 5.8 mph - N/A   Clear
4:53 AM 48.9 °F - 46.0 °F 90% 30.02 in 10.0 mi NNW 4.6 mph - N/A   Clear
5:53 AM 48.9 °F - 45.0 °F 86% 30.05 in 10.0 mi NNW 8.1 mph - N/A   Clear
6:53 AM 48.9 °F - 45.0 °F 86% 30.08 in 10.0 mi North 6.9 mph - N/A   Clear
7:53 AM 48.9 °F - 45.0 °F 86% 30.10 in 10.0 mi North 10.4 mph - N/A   Clear
8:53 AM 51.1 °F - 45.0 °F 80% 30.14 in 10.0 mi North 13.8 mph 24.2 mph N/A   Clear
9:53 AM 54.0 °F - 44.1 °F 69% 30.16 in 10.0 mi North 11.5 mph 31.1 mph N/A   Clear
10:53 AM 55.9 °F - 43.0 °F 62% 30.18 in 10.0 mi North 16.1 mph 26.5 mph N/A   Clear
11:53 AM 53.1 °F - 42.1 °F 66% 30.20 in 10.0 mi North 16.1 mph 24.2 mph N/A   Overcast
12:53 PM 54.0 °F - 39.9 °F 59% 30.19 in 10.0 mi NNW 15.0 mph 26.5 mph N/A   Mostly Cloudy
1:53 PM 57.9 °F - 35.1 °F 42% 30.17 in 10.0 mi NNW 13.8 mph 25.3 mph N/A   Mostly Cloudy
2:53 PM 57.9 °F - 27.0 °F 31% 30.17 in 10.0 mi North 16.1 mph 26.5 mph N/A   Clear
3:53 PM 55.0 °F - 25.0 °F 31% 30.20 in 10.0 mi NNE 20.7 mph 29.9 mph N/A   Partly Cloudy
4:53 PM 53.1 °F - 17.1 °F 24% 30.25 in 10.0 mi North 16.1 mph 25.3 mph N/A   Clear
5:53 PM 50.0 °F - 17.1 °F 27% 30.27 in 10.0 mi North 11.5 mph 25.3 mph N/A   Clear
6:53 PM 46.9 °F - 19.0 °F 33% 30.30 in 10.0 mi North 6.9 mph - N/A   Clear
7:53 PM 44.1 °F 40.8 °F 21.9 °F 42% 30.33 in 10.0 mi North 5.8 mph - N/A   Clear
8:53 PM 42.1 °F 39.2 °F 24.1 °F 49% 30.34 in 10.0 mi North 4.6 mph - N/A   Clear
9:53 PM 42.1 °F 37.7 °F 21.9 °F 45% 30.36 in 10.0 mi North 6.9 mph - N/A   Clear
10:53 PM 39.0 °F 36.8 °F 24.1 °F 55% 30.37 in 10.0 mi NNW 3.5 mph - N/A   Clear
11:53 PM 37.9 °F 34.4 °F 24.1 °F 57% 30.37 in 10.0 mi NW 4.6 mph - N/A   Clear